This is the latest recevied weather packets stored in our database for station/object W4TJP. If no packets are shown the sender has not sent any weather packets the latest 10 day(s).
| Time | Temp. | Humidity | Pressure | Rain* | Wind** | Luminosity | Snow |
|---|---|---|---|---|---|---|---|
| 1778080363 | 17.78° C | 99% | 1011.1 hPa | 0 mm | - | 398 W/m² | - |
| 1778080060 | 17.22° C | 99% | 1010.6 hPa | 0 mm | - | 288 W/m² | - |
| 1778079757 | 17.22° C | 99% | 1010.4 hPa | 0 mm | - | 209 W/m² | - |
| 1778079454 | 17.22° C | 99% | 1010.6 hPa | 0 mm | - | 186 W/m² | - |
| 1778079150 | 17.22° C | 99% | 1010.7 hPa | 0 mm | - | 162 W/m² | - |
| 1778078848 | 17.22° C | 99% | 1010.4 hPa | 0 mm | - | 145 W/m² | - |
| 1778078545 | 17.22° C | 99% | 1010.3 hPa | 0 mm | - | 107 W/m² | - |
| 1778078242 | 17.22° C | 99% | 1010.5 hPa | 0 mm | - | 181 W/m² | - |
| 1778077940 | 16.67° C | 99% | 1010.3 hPa | 0 mm | - | 179 W/m² | - |
| 1778077638 | 16.67° C | 99% | 1010.7 hPa | 0 mm | - | 147 W/m² | - |
| 1778077336 | 16.67° C | 99% | 1010 hPa | 1.27 mm | - | 65 W/m² | - |
| 1778077034 | 16.67° C | 99% | 1010.6 hPa | 3.05 mm | - | 39 W/m² | - |
| 1778076732 | 16.67° C | 99% | 1011.6 hPa | 1.78 mm | - | 46 W/m² | - |
| 1778076429 | 16.67° C | 99% | 1011.9 hPa | 1.78 mm | - | 25 W/m² | - |
| 1778076126 | 16.67° C | 99% | 1011.9 hPa | 1.78 mm | - | 30 W/m² | - |
| 1778075823 | 16.67° C | 99% | 1011.7 hPa | 0 mm | - | 30 W/m² | - |
| 1778075519 | 16.67° C | 99% | 1011.9 hPa | 0 mm | - | 29 W/m² | - |
| 1778075216 | 16.67° C | 99% | 1011.8 hPa | 1.27 mm | - | 41 W/m² | - |
| 1778074912 | 16.67° C | 99% | 1011.4 hPa | 1.27 mm | - | 54 W/m² | - |
| 1778074609 | 16.67° C | 99% | 1011.5 hPa | 0 mm | - | 58 W/m² | - |
| 1778074305 | 16.67° C | 99% | 1011.3 hPa | 0 mm | - | 62 W/m² | - |
| 1778074003 | 16.67° C | 99% | 1011.3 hPa | 0 mm | - | 57 W/m² | - |
| 1778073700 | 16.67° C | 99% | 1011.1 hPa | 0 mm | - | 29 W/m² | - |
| 1778073398 | 16.67° C | 99% | 1010.9 hPa | 0 mm | - | 26 W/m² | - |
| 1778073093 | 16.67° C | 99% | 1011.1 hPa | 0 mm | - | 30 W/m² | - |
* Rain latest hour (hover to see other rain measurements)
** Current wind speed in m/s (hover to see current wind gust speed)